AFL732 URWW-UWLL

Flight info

Callsign AFL732
Flight time N/A
Altitude 37000
Route RODUN1E RODUN R807 UROBO P135 DAFOS T789 NEPNI NEPNI1E
Aircraft A320/M-SDE3FGHIRWY/LB1

Departure

Time 2026-04-30 19:38
Airport Volgograd International Airport (URWW)

Arrival

Time N/A
Airport Ulyanovsk Baratayevka Airport (UWLL)
Time Latitude Longitude Altitude Speed Heading
2026-04-30 19:19 48.79071 44.35504 473 ft 0 kts 341°
2026-04-30 19:32 48.79059 44.35510 473 ft 2 kts 341°
2026-04-30 19:32 48.79049 44.35515 473 ft 0 kts 341°
2026-04-30 19:32 48.79037 44.35525 473 ft 2 kts 308°
2026-04-30 19:32 48.79030 44.35546 473 ft 2 kts 276°
2026-04-30 19:33 48.79031 44.35562 473 ft 0 kts 252°
2026-04-30 19:33 48.79033 44.35572 473 ft 0 kts 248°
2026-04-30 19:33 48.79034 44.35573 473 ft 0 kts 248°
2026-04-30 19:35 48.79031 44.35561 473 ft 3 kts 249°
2026-04-30 19:35 48.79013 44.35490 473 ft 9 kts 250°
2026-04-30 19:35 48.78983 44.35364 470 ft 15 kts 250°
2026-04-30 19:36 48.78943 44.35199 470 ft 17 kts 249°
2026-04-30 19:36 48.78868 44.35114 469 ft 14 kts 168°
2026-04-30 19:36 48.78695 44.35201 467 ft 0 kts 161°
2026-04-30 19:37 48.78686 44.35205 467 ft 4 kts 160°
2026-04-30 19:37 48.78636 44.35231 467 ft 10 kts 162°
2026-04-30 19:38 48.78551 44.35210 467 ft 23 kts 236°
2026-04-30 19:38 48.78362 44.34605 458 ft 101 kts 244°
2026-04-30 19:38 48.77966 44.33350 458 ft 159 kts 245°
2026-04-30 19:38 48.77482 44.31843 1120 ft 159 kts 246°
2026-04-30 19:39 48.76998 44.30359 1904 ft 159 kts 248°
2026-04-30 19:39 48.76517 44.28865 2572 ft 164 kts 249°
2026-04-30 19:39 48.75998 44.27223 2994 ft 184 kts 249°
2026-04-30 19:39 48.75418 44.25382 3508 ft 203 kts 248°
2026-04-30 19:40 48.74804 44.23394 4062 ft 219 kts 253°
2026-04-30 19:40 48.74646 44.21078 4633 ft 230 kts 284°
2026-04-30 19:40 48.75377 44.18918 5274 ft 241 kts 314°
2026-04-30 19:40 48.76828 44.17642 6111 ft 251 kts 345°
2026-04-30 19:41 48.78571 44.17790 7035 ft 262 kts 18°
2026-04-30 19:41 48.80127 44.19268 7932 ft 271 kts 32°
2026-04-30 19:41 48.81662 44.20949 8751 ft 278 kts 31°
2026-04-30 19:41 48.83264 44.22659 9615 ft 284 kts 31°
2026-04-30 19:42 48.84871 44.24365 10464 ft 289 kts 30°
2026-04-30 19:42 48.86549 44.26149 11058 ft 304 kts 31°
2026-04-30 19:42 48.88325 44.28039 11566 ft 320 kts 31°
2026-04-30 19:42 48.90159 44.30000 12291 ft 328 kts 31°
2026-04-30 19:43 48.92044 44.32024 13027 ft 335 kts 31°
2026-04-30 19:43 48.93945 44.34065 13761 ft 342 kts 31°
2026-04-30 19:43 48.95905 44.36173 14491 ft 348 kts 30°
2026-04-30 19:44 48.99893 44.40469 15983 ft 358 kts 30°
2026-04-30 19:44 49.01944 44.42681 16729 ft 362 kts 29°
2026-04-30 19:44 49.04001 44.44900 17419 ft 367 kts 29°
2026-04-30 19:44 49.06067 44.47131 18088 ft 372 kts 28°
2026-04-30 19:45 49.08188 44.49418 18768 ft 375 kts 27°
2026-04-30 19:45 49.10459 44.51300 19428 ft 371 kts 15°
2026-04-30 19:45 49.12874 44.52705 20086 ft 373 kts 12°
2026-04-30 19:45 49.15315 44.54030 20709 ft 378 kts 11°
2026-04-30 19:46 49.17784 44.55395 21329 ft 383 kts 12°
2026-04-30 19:46 49.20325 44.56846 21947 ft 388 kts 12°
2026-04-30 19:46 49.22852 44.58322 22541 ft 393 kts 12°
2026-04-30 19:46 49.25393 44.59830 23098 ft 398 kts 13°
2026-04-30 19:47 49.28005 44.61395 23641 ft 403 kts 13°
2026-04-30 19:47 49.29712 44.62425 23992 ft 406 kts 13°
2026-04-30 19:47 49.33266 44.64571 24702 ft 412 kts 13°
2026-04-30 19:47 49.35938 44.66193 25207 ft 416 kts 14°
2026-04-30 19:48 49.38600 44.67828 25688 ft 419 kts 14°
2026-04-30 19:48 49.41315 44.69493 26169 ft 422 kts 14°
2026-04-30 19:48 49.44068 44.71180 26720 ft 423 kts 14°
2026-04-30 19:48 49.46786 44.72846 27306 ft 422 kts 14°
2026-04-30 19:49 49.49503 44.74511 27856 ft 422 kts 14°
2026-04-30 19:49 49.54900 44.77821 28988 ft 418 kts 14°
2026-04-30 19:49 49.57583 44.79465 29431 ft 418 kts 14°
2026-04-30 19:50 49.60289 44.81126 29854 ft 419 kts 14°
2026-04-30 19:50 49.62964 44.82771 30310 ft 418 kts 14°
2026-04-30 19:50 49.65640 44.84418 30742 ft 416 kts 14°
2026-04-30 19:50 49.68323 44.86064 31068 ft 415 kts 14°
2026-04-30 19:51 49.71011 44.87714 31337 ft 418 kts 15°
2026-04-30 19:51 49.73552 44.89276 31569 ft 420 kts 15°
2026-04-30 19:51 49.76241 44.90937 31863 ft 421 kts 16°
2026-04-30 19:51 49.78975 44.92631 32152 ft 422 kts 16°
2026-04-30 19:52 49.81683 44.94310 32449 ft 423 kts 16°
2026-04-30 19:52 49.84421 44.96007 32626 ft 429 kts 17°
2026-04-30 19:52 49.87230 44.97751 32736 ft 436 kts 17°
2026-04-30 19:52 49.90031 44.99492 32854 ft 443 kts 17°
2026-04-30 19:53 49.92917 45.01290 33029 ft 447 kts 17°
2026-04-30 19:53 49.95807 45.03095 33295 ft 448 kts 17°
2026-04-30 19:53 49.98663 45.04879 33592 ft 447 kts 18°
2026-04-30 19:53 50.01541 45.06680 33779 ft 451 kts 18°
2026-04-30 19:54 50.04438 45.08498 34100 ft 450 kts 18°
2026-04-30 19:54 50.07357 45.10329 34420 ft 449 kts 18°
2026-04-30 19:54 50.10211 45.12122 34729 ft 448 kts 18°
2026-04-30 19:54 50.13113 45.13941 35043 ft 447 kts 18°
2026-04-30 19:55 50.15965 45.15728 35356 ft 445 kts 18°
2026-04-30 19:55 50.18816 45.17519 35668 ft 443 kts 19°
2026-04-30 19:55 50.21653 45.19305 35981 ft 441 kts 19°
2026-04-30 19:55 50.24499 45.21102 36298 ft 438 kts 19°
2026-04-30 19:56 50.27311 45.22880 36608 ft 435 kts 19°
2026-04-30 19:56 50.30093 45.24642 36920 ft 433 kts 19°
2026-04-30 19:56 50.32853 45.26390 37081 ft 435 kts 19°
2026-04-30 19:56 50.35667 45.28175 37089 ft 441 kts 19°
2026-04-30 19:57 50.41461 45.31859 37095 ft 454 kts 19°
2026-04-30 19:57 50.47373 45.35629 37090 ft 466 kts 19°
2026-04-30 19:58 50.53406 45.39490 37089 ft 477 kts 19°
2026-04-30 19:58 50.59483 45.43387 37074 ft 470 kts 20°
2026-04-30 19:59 50.62446 45.45295 37072 ft 455 kts 19°
2026-04-30 19:59 50.65319 45.47145 37070 ft 450 kts 19°
2026-04-30 20:00 50.73969 45.52719 37065 ft 449 kts 19°
2026-04-30 20:00 50.79817 45.56001 37064 ft 447 kts 13°
2026-04-30 20:01 50.88667 45.59300 37064 ft 446 kts
2026-04-30 20:01 50.93659 45.61060 37058 ft 446 kts
2026-04-30 20:02 51.02599 45.64657 37046 ft 447 kts 16°
2026-04-30 20:03 51.11204 45.70478 37046 ft 448 kts 24°
2026-04-30 20:03 51.16813 45.74721 37047 ft 448 kts 24°
2026-04-30 20:04 51.22429 45.78957 37048 ft 448 kts 24°
2026-04-30 20:05 51.30867 45.85327 37045 ft 449 kts 24°
2026-04-30 20:05 51.39285 45.91702 37039 ft 449 kts 24°
2026-04-30 20:06 51.44934 45.95995 37041 ft 448 kts 24°
2026-04-30 20:06 51.50531 46.00259 37046 ft 447 kts 24°